| time (UTC) | temp F | wind direction | speed knots | gust knots | rain 1hr in | rain 24hr in | rain mn in | humidity % | barometer mb |
| 20260504223325 | 63 | 263 | 11.3 | 19.1 | 0.00 | 0.00 | 0.00 | 71 | 1014.1 |
| 20260504222819 | 62 | 260 | 6.1 | 20.0 | 0.00 | 0.00 | 0.00 | 73 | 1014.1 |
| 20260504222311 | 63 | 237 | 11.3 | 20.0 | 0.00 | 0.00 | 0.00 | 71 | 1014.1 |
| 20260504221803 | 63 | 277 | 8.7 | 20.9 | 0.00 | 0.00 | 0.00 | 72 | 1013.8 |
| 20260504215735 | 62 | 215 | 7.0 | 15.6 | 0.00 | 0.00 | 0.00 | 71 | 1014.5 |
| 20260504215227 | 63 | 227 | 7.8 | 15.6 | 0.00 | 0.00 | 0.00 | 72 | 1014.5 |
| 20260504214720 | 64 | 252 | 12.2 | 15.6 | 0.00 | 0.00 | 0.00 | 68 | 1014.5 |
| 20260504214213 | 64 | 328 | 4.3 | 18.2 | 0.00 | 0.00 | 0.00 | 69 | 1014.8 |
| 20260504213706 | 63 | 232 | 6.1 | 18.2 | 0.00 | 0.00 | 0.00 | 69 | 1014.8 |
| 20260504213158 | 64 | 207 | 8.7 | 15.6 | 0.00 | 0.00 | 0.00 | 68 | 1014.8 |
| 20260504212651 | 63 | 181 | 9.6 | 14.8 | 0.00 | 0.00 | 0.00 | 70 | 1014.5 |
| 20260504212143 | 64 | 277 | 7.8 | 13.9 | 0.00 | 0.00 | 0.00 | 68 | 1014.5 |
| 20260504211636 | 63 | 216 | 5.2 | 16.5 | 0.00 | 0.00 | 0.00 | 68 | 1014.8 |
| 20260504210621 | 64 | 220 | 13.0 | 16.5 | 0.00 | 0.00 | 0.00 | 65 | 1014.8 |
| 20260504210114 | 62 | 310 | 3.5 | 16.5 | 0.00 | 0.00 | 0.00 | 67 | 1014.8 |
| 20260504205100 | 63 | 226 | 11.3 | 14.8 | 0.00 | 0.00 | 0.00 | 65 | 1014.8 |
| 20260504204553 | 64 | 250 | 7.0 | 15.6 | 0.00 | 0.00 | 0.00 | 65 | 1014.8 |
| 20260504204046 | 63 | 211 | 9.6 | 15.6 | 0.00 | 0.00 | 0.00 | 65 | 1014.8 |
| 20260504203537 | 64 | 232 | 9.6 | 16.5 | 0.00 | 0.00 | 0.00 | 63 | 1014.8 |
| 20260504203030 | 63 | 173 | 9.6 | 16.5 | 0.00 | 0.00 | 0.00 | 66 | 1014.8 |
| 20260504202523 | 63 | 211 | 11.3 | 15.6 | 0.00 | 0.00 | 0.00 | 63 | 1014.8 |
| 20260504202016 | 64 | 233 | 11.3 | 15.6 | 0.00 | 0.00 | 0.00 | 61 | 1014.8 |
| 20260504201509 | 63 | 223 | 12.2 | 15.6 | 0.00 | 0.00 | 0.00 | 62 | 1014.8 |
| 20260504201001 | 63 | 255 | 7.8 | 15.6 | 0.00 | 0.00 | 0.00 | 61 | 1014.5 |
| 20260504200454 | 64 | 259 | 7.8 | 16.5 | 0.00 | 0.00 | 0.00 | 60 | 1014.8 |
| 20260504195946 | 64 | 220 | 13.9 | 16.5 | 0.00 | 0.00 | 0.00 | 58 | 1014.8 |
| 20260504195440 | 64 | 210 | 5.2 | 13.9 | 0.00 | 0.00 | 0.00 | 59 | 1014.5 |
| 20260504194932 | 63 | 218 | 5.2 | 13.9 | 0.00 | 0.00 | 0.00 | 62 | 1014.8 |
| 20260504194424 | 63 | 208 | 8.7 | 14.8 | 0.00 | 0.00 | 0.00 | 62 | 1014.8 |
| 20260504193917 | 63 | 273 | 9.6 | 15.6 | 0.00 | 0.00 | 0.00 | 59 | 1014.8 |
| 20260504193410 | 64 | 175 | 8.7 | 15.6 | 0.00 | 0.00 | 0.00 | 61 | 1014.8 |
| 20260504192903 | 63 | 299 | 6.1 | 16.5 | 0.00 | 0.00 | 0.00 | 62 | 1014.8 |
| 20260504192356 | 63 | 261 | 9.6 | 16.5 | 0.00 | 0.00 | 0.00 | 60 | 1014.8 |
| 20260504191849 | 63 | 248 | 10.4 | 13.9 | 0.00 | 0.00 | 0.00 | 64 | 1014.8 |
| 20260504191341 | 63 | 257 | 6.1 | 15.6 | 0.00 | 0.00 | 0.00 | 64 | 1014.5 |
| 20260504190835 | 62 | 231 | 7.8 | 15.6 | 0.00 | 0.00 | 0.00 | 62 | 1014.8 |
| 20260504190326 | 63 | 235 | 8.7 | 14.8 | 0.00 | 0.00 | 0.00 | 61 | 1014.8 |
| 20260504185819 | 63 | 264 | 7.8 | 13.9 | 0.00 | 0.00 | 0.00 | 60 | 1014.8 |
| 20260504185312 | 63 | 258 | 10.4 | 14.8 | 0.00 | 0.00 | 0.00 | 60 | 1015.1 |
| 20260504184805 | 62 | 238 | 10.4 | 16.5 | 0.00 | 0.00 | 0.00 | 62 | 1014.8 |
| 20260504184257 | 61 | 313 | 6.1 | 16.5 | 0.00 | 0.00 | 0.00 | 65 | 1014.8 |
| 20260504183751 | 62 | 236 | 8.7 | 15.6 | 0.00 | 0.00 | 0.00 | 64 | 1014.8 |
| 20260504183243 | 62 | 238 | 10.4 | 18.2 | 0.00 | 0.00 | 0.00 | 63 | 1015.1 |
| 20260504182736 | 62 | 226 | 13.9 | 15.6 | 0.00 | 0.00 | 0.00 | 64 | 1014.8 |
| 20260504181721 | 62 | 243 | 5.2 | 15.6 | 0.00 | 0.00 | 0.00 | 66 | 1014.8 |
| 20260504180706 | 61 | 228 | 10.4 | 16.5 | 0.00 | 0.00 | 0.00 | 66 | 1015.1 |
| 20260504180159 | 61 | 233 | 13.0 | 19.1 | 0.00 | 0.00 | 0.00 | 66 | 1015.1 |
| 20260504175145 | 62 | 226 | 5.2 | 15.6 | 0.00 | 0.00 | 0.00 | 66 | 1014.8 |
| 20260504174638 | 62 | 206 | 11.3 | 15.6 | 0.00 | 0.00 | 0.00 | 66 | 1014.8 |
| 20260504173623 | 62 | 222 | 10.4 | 16.5 | 0.00 | 0.00 | 0.00 | 64 | 1014.8 |
| 20260504173115 | 62 | 226 | 7.8 | 13.9 | 0.00 | 0.00 | 0.00 | 66 | 1014.8 |
| 20260504172608 | 61 | 273 | 7.0 | 13.9 | 0.00 | 0.00 | 0.00 | 68 | 1014.8 |
| 20260504172101 | 61 | 229 | 7.8 | 13.0 | 0.00 | 0.00 | 0.00 | 66 | 1014.8 |
| 20260504171553 | 62 | 262 | 8.7 | 11.3 | 0.00 | 0.00 | 0.00 | 68 | 1014.5 |
| 20260504171046 | 61 | 208 | 5.2 | 13.0 | 0.00 | 0.00 | 0.00 | 70 | 1014.5 |
| 20260504160412 | 63 | 259 | 0.9 | 3.5 | 0.00 | 0.00 | 0.00 | 63 | 1014.1 |
| 20260504150752 | 61 | 47 | 1.7 | 2.6 | 0.00 | 0.00 | 0.00 | 70 | 1013.8 |
| 20260504150245 | 61 | 350 | 0.9 | 2.6 | 0.00 | 0.00 | 0.00 | 72 | 1014.1 |
| 20260504141132 | 57 | 248 | 0.0 | 0.9 | 0.00 | 0.00 | 0.00 | 80 | 1013.8 |
| 20260504140625 | 57 | 253 | 0.9 | 0.9 | 0.00 | 0.00 | 0.00 | 80 | 1013.8 |
| 20260504140118 | 57 | 263 | 0.0 | 0.9 | 0.00 | 0.00 | 0.00 | 80 | 1013.8 |
| 20260504130459 | 57 | 272 | 0.9 | 1.7 | 0.00 | 0.00 | 0.00 | 79 | 1013.4 |
| 20260504110711 | 58 | 289 | 0.0 | 1.7 | 0.00 | 0.00 | 0.00 | 82 | 1013.4 |
| 20260504100543 | 58 | 358 | 0.0 | 2.6 | 0.00 | 0.00 | 0.00 | 80 | 1012.8 |
| 20260504081811 | 58 | 242 | 1.7 | 3.5 | 0.00 | 0.00 | 0.00 | 82 | 1014.1 |
| 20260504081304 | 58 | 229 | 1.7 | 3.5 | 0.00 | 0.00 | 0.00 | 81 | 1014.1 |
| 20260504080757 | 58 | 231 | 1.7 | 2.6 | 0.00 | 0.00 | 0.00 | 81 | 1014.5 |
| 20260504080249 | 58 | 274 | 0.9 | 2.6 | 0.00 | 0.00 | 0.00 | 80 | 1014.5 |
| 20260504070122 | 58 | 276 | 0.9 | 7.0 | 0.00 | 0.00 | 0.00 | 79 | 1014.1 |
| 20260504050334 | 59 | 260 | 6.1 | 7.8 | 0.00 | 0.00 | 0.00 | 77 | 1014.1 |
| 20260504045828 | 59 | 275 | 2.6 | 7.8 | 0.00 | 0.00 | 0.00 | 76 | 1013.4 |
| 20260504045320 | 59 | 285 | 2.6 | 7.8 | 0.00 | 0.00 | 0.00 | 76 | 1013.8 |
| 20260504044813 | 59 | 277 | 4.3 | 7.8 | 0.00 | 0.00 | 0.00 | 76 | 1013.8 |
| 20260504044306 | 59 | 276 | 2.6 | 7.0 | 0.00 | 0.00 | 0.00 | 76 | 1013.8 |
| 20260504043759 | 59 | 255 | 2.6 | 8.7 | 0.00 | 0.00 | 0.00 | 76 | 1013.8 |
| 20260504043252 | 59 | 200 | 5.2 | 8.7 | 0.00 | 0.00 | 0.00 | 76 | 1013.8 |
| 20260504042744 | 59 | 227 | 7.0 | 8.7 | 0.00 | 0.00 | 0.00 | 76 | 1013.4 |
| 20260504042237 | 59 | 242 | 5.2 | 7.0 | 0.00 | 0.00 | 0.00 | 76 | 1013.8 |
| 20260504041730 | 59 | 257 | 2.6 | 7.0 | 0.00 | 0.00 | 0.00 | 77 | 1013.4 |
| 20260504041223 | 59 | 228 | 4.3 | 7.0 | 0.00 | 0.00 | 0.00 | 77 | 1013.4 |
| 20260504035700 | 59 | 198 | 3.5 | 7.8 | 0.00 | 0.00 | 0.00 | 78 | 1013.4 |
| 20260504035153 | 59 | 227 | 2.6 | 7.8 | 0.00 | 0.00 | 0.00 | 79 | 1013.1 |
| 20260504034140 | 59 | 200 | 5.2 | 7.8 | 0.00 | 0.00 | 0.00 | 79 | 1013.1 |
| 20260504033631 | 59 | 219 | 5.2 | 8.7 | 0.00 | 0.00 | 0.00 | 79 | 1013.1 |
| 20260504033124 | 59 | 228 | 6.1 | 8.7 | 0.00 | 0.00 | 0.00 | 79 | 1013.1 |
| 20260504032109 | 59 | 251 | 3.5 | 6.1 | 0.00 | 0.00 | 0.00 | 79 | 1013.1 |
| 20260504031055 | 59 | 238 | 4.3 | 5.2 | 0.00 | 0.00 | 0.00 | 79 | 1012.8 |
| 20260504030548 | 59 | 207 | 3.5 | 7.0 | 0.00 | 0.00 | 0.00 | 78 | 1012.8 |
| 20260504030041 | 59 | 255 | 1.7 | 7.0 | 0.00 | 0.00 | 0.00 | 78 | 1012.8 |
| 20260504025534 | 59 | 218 | 4.3 | 7.0 | 0.00 | 0.00 | 0.00 | 78 | 1012.8 |
| 20260504025025 | 59 | 249 | 1.7 | 8.7 | 0.00 | 0.00 | 0.00 | 78 | 1012.4 |
| 20260504024518 | 59 | 269 | 3.5 | 9.6 | 0.00 | 0.00 | 0.00 | 78 | 1012.8 |
| 20260504024011 | 59 | 228 | 4.3 | 9.6 | 0.00 | 0.00 | 0.00 | 78 | 1012.4 |
| 20260504023504 | 59 | 250 | 4.3 | 13.9 | 0.00 | 0.00 | 0.00 | 77 | 1012.8 |
| 20260504022957 | 59 | 247 | 7.8 | 13.9 | 0.00 | 0.00 | 0.00 | 77 | 1012.4 |
| 20260504022450 | 59 | 260 | 4.3 | 12.2 | 0.00 | 0.00 | 0.00 | 76 | 1012.4 |
| 20260504021942 | 59 | 248 | 7.0 | 12.2 | 0.00 | 0.00 | 0.00 | 76 | 1012.4 |
| 20260504021435 | 59 | 223 | 7.0 | 11.3 | 0.00 | 0.00 | 0.00 | 76 | 1012.4 |
| 20260504020928 | 60 | 215 | 9.6 | 11.3 | 0.00 | 0.00 | 0.00 | 75 | 1012.4 |
| 20260504020420 | 60 | 250 | 5.2 | 9.6 | 0.00 | 0.00 | 0.00 | 74 | 1012.4 |
| 20260504015912 | 60 | 254 | 3.5 | 9.6 | 0.00 | 0.00 | 0.00 | 75 | 1012.4 |
| 20260504015405 | 60 | 211 | 7.8 | 9.6 | 0.00 | 0.00 | 0.00 | 74 | 1012.4 |
| 20260504014858 | 59 | 181 | 5.2 | 9.6 | 0.00 | 0.00 | 0.00 | 75 | 1012.4 |
| 20260504014351 | 60 | 243 | 5.2 | 13.9 | 0.00 | 0.00 | 0.00 | 75 | 1012.4 |
| 20260504013844 | 59 | 203 | 7.0 | 13.9 | 0.00 | 0.00 | 0.00 | 76 | 1012.1 |
| 20260504013336 | 59 | 216 | 9.6 | 13.0 | 0.00 | 0.00 | 0.00 | 76 | 1012.4 |
| 20260504012829 | 60 | 309 | 5.2 | 13.0 | 0.00 | 0.00 | 0.00 | 75 | 1012.1 |
| 20260504012321 | 60 | 223 | 8.7 | 13.0 | 0.00 | 0.00 | 0.00 | 75 | 1012.4 |
| 20260504011814 | 60 | 254 | 7.0 | 12.2 | 0.00 | 0.00 | 0.00 | 74 | 1012.4 |
| 20260504011307 | 60 | 235 | 10.4 | 12.2 | 0.00 | 0.00 | 0.00 | 72 | 1012.4 |
| 20260504010800 | 60 | 235 | 6.1 | 11.3 | 0.00 | 0.00 | 0.00 | 73 | 1012.1 |
| 20260504010253 | 60 | 253 | 7.8 | 11.3 | 0.00 | 0.00 | 0.00 | 73 | 1012.1 |
| 20260504005238 | 60 | 244 | 7.8 | 11.3 | 0.00 | 0.00 | 0.00 | 72 | 1012.1 |
| 20260504004731 | 61 | 246 | 7.8 | 11.3 | 0.00 | 0.00 | 0.00 | 70 | 1012.1 |
| 20260504004224 | 61 | 280 | 3.5 | 12.2 | 0.00 | 0.00 | 0.00 | 71 | 1012.1 |
| 20260504003717 | 61 | 244 | 7.8 | 12.2 | 0.00 | 0.00 | 0.00 | 70 | 1012.1 |
| 20260504003209 | 61 | 231 | 5.2 | 13.9 | 0.00 | 0.00 | 0.00 | 70 | 1012.1 |
| 20260504002702 | 61 | 241 | 6.1 | 13.9 | 0.00 | 0.00 | 0.00 | 69 | 1011.8 |
| 20260504002155 | 61 | 245 | 5.2 | 9.6 | 0.00 | 0.00 | 0.00 | 67 | 1012.1 |
| 20260504001648 | 61 | 249 | 5.2 | 11.3 | 0.00 | 0.00 | 0.00 | 68 | 1012.1 |
| 20260504000633 | 61 | 264 | 7.8 | 11.3 | 0.00 | 0.00 | 0.00 | 69 | 1012.1 |
| 20260504000125 | 61 | 264 | 5.2 | 9.6 | 0.00 | 0.00 | 0.00 | 71 | 1011.8 |
| 20260503235618 | 60 | 215 | 6.1 | 13.9 | 0.00 | 0.00 | 0.00 | 72 | 1011.8 |
| 20260503235111 | 60 | 231 | 10.4 | 13.9 | 0.00 | 0.00 | 0.00 | 72 | 1011.8 |
| 20260503234604 | 61 | 237 | 7.8 | 13.9 | 0.00 | 0.00 | 0.00 | 71 | 1012.1 |
| 20260503234057 | 61 | 236 | 7.8 | 11.3 | 0.00 | 0.00 | 0.00 | 73 | 1011.8 |
| 20260503233549 | 61 | 262 | 6.1 | 12.2 | 0.00 | 0.00 | 0.00 | 74 | 1011.8 |
| 20260503233041 | 61 | 218 | 8.7 | 13.9 | 0.00 | 0.00 | 0.00 | 73 | 1011.8 |
| 20260503232535 | 61 | 267 | 8.7 | 13.9 | 0.00 | 0.00 | 0.00 | 73 | 1012.1 |
| 20260503231519 | 62 | 283 | 6.1 | 9.6 | 0.00 | 0.00 | 0.00 | 70 | 1012.1 |
| 20260503231012 | 62 | 270 | 7.8 | 12.2 | 0.00 | 0.00 | 0.00 | 71 | 1012.1 |
| 20260503230505 | 62 | 273 | 5.2 | 12.2 | 0.00 | 0.00 | 0.00 | 70 | 1012.1 |
| 20260503225959 | 62 | 258 | 6.1 | 13.9 | 0.00 | 0.00 | 0.00 | 69 | 1012.4 |
| 20260503225450 | 63 | 232 | 11.3 | 13.9 | 0.00 | 0.00 | 0.00 | 67 | 1012.1 |
| 20260503224943 | 63 | 222 | 5.2 | 11.3 | 0.00 | 0.00 | 0.00 | 67 | 1012.1 |